IGO7104 VOHS-VEJR

Flight info

Callsign IGO7104
Flight time 1h 12m
Altitude 19000
Route VIRKO5 VIRKO DCT MEPIP
Aircraft AT76/M-SDFGIRY/S

Departure

Time 2026-05-05 12:53
Airport Rajiv Gandhi International Airport (VOHS)

Arrival

Time 2026-05-05 14:06
Airport Jagdalpur Airport (VEJR)
Time Latitude Longitude Altitude Speed Heading
2026-05-05 12:30 17.23424 78.43368 1980 ft 0 kts 360°
2026-05-05 12:41 17.23402 78.43367 1979 ft 4 kts 13°
2026-05-05 12:41 17.23378 78.43356 1977 ft 4 kts 45°
2026-05-05 12:42 17.23366 78.43334 1978 ft 3 kts 86°
2026-05-05 12:42 17.23365 78.43330 1978 ft 0 kts 89°
2026-05-05 12:43 17.23365 78.43326 1976 ft 0 kts 89°
2026-05-05 12:44 17.23366 78.43384 1976 ft 9 kts 89°
2026-05-05 12:44 17.23366 78.43458 1976 ft 14 kts 89°
2026-05-05 12:44 17.23368 78.43579 1976 ft 16 kts 89°
2026-05-05 12:44 17.23359 78.43680 1978 ft 12 kts 126°
2026-05-05 12:45 17.23282 78.43696 1976 ft 12 kts 180°
2026-05-05 12:45 17.23196 78.43698 1979 ft 5 kts 179°
2026-05-05 12:45 17.23187 78.43698 1978 ft 0 kts 179°
2026-05-05 12:45 17.23183 78.43698 1977 ft 2 kts 179°
2026-05-05 12:46 17.23136 78.43701 1978 ft 14 kts 169°
2026-05-05 12:46 17.23094 78.43815 1976 ft 19 kts 89°
2026-05-05 12:46 17.23096 78.43942 1977 ft 19 kts 89°
2026-05-05 12:46 17.23098 78.44091 1980 ft 22 kts 89°
2026-05-05 12:47 17.23100 78.44268 1977 ft 21 kts 89°
2026-05-05 12:47 17.23102 78.44404 1977 ft 16 kts 89°
2026-05-05 12:47 17.23104 78.44554 1977 ft 26 kts 89°
2026-05-05 12:47 17.23107 78.44746 1976 ft 24 kts 89°
2026-05-05 12:48 17.23103 78.44898 1975 ft 17 kts 113°
2026-05-05 12:48 17.23019 78.44927 1978 ft 0 kts 178°
2026-05-05 12:48 17.23017 78.44927 1978 ft 0 kts 178°
2026-05-05 12:49 17.23015 78.44927 1977 ft 1 kts 178°
2026-05-05 12:49 17.22994 78.44928 1976 ft 6 kts 178°
2026-05-05 12:49 17.22918 78.44902 1977 ft 13 kts 230°
2026-05-05 12:49 17.22904 78.44831 1977 ft 0 kts 269°
2026-05-05 12:50 17.22904 78.44827 1977 ft 0 kts 269°
2026-05-05 12:51 17.22904 78.44823 1977 ft 2 kts 269°
2026-05-05 12:52 17.22903 78.44793 1977 ft 21 kts 270°
2026-05-05 12:52 17.22898 78.44343 1975 ft 75 kts 269°
2026-05-05 12:52 17.22892 78.43895 1976 ft 107 kts 269°
2026-05-05 12:52 17.22880 78.42970 2031 ft 141 kts 270°
2026-05-05 12:53 17.22831 78.41894 2299 ft 160 kts 263°
2026-05-05 12:53 17.22792 78.40617 2450 ft 188 kts 269°
2026-05-05 12:53 17.22812 78.39170 2568 ft 209 kts 269°
2026-05-05 12:53 17.22857 78.37596 2775 ft 223 kts 269°
2026-05-05 12:54 17.23518 78.34409 3408 ft 238 kts 310°
2026-05-05 12:54 17.24912 78.33499 3699 ft 241 kts 346°
2026-05-05 12:54 17.26546 78.33259 4003 ft 233 kts 353°
2026-05-05 12:55 17.28101 78.33015 4302 ft 226 kts 352°
2026-05-05 12:55 17.29631 78.32771 4613 ft 220 kts 353°
2026-05-05 12:55 17.31131 78.32554 4896 ft 215 kts 353°
2026-05-05 12:55 17.32606 78.32436 5160 ft 213 kts
2026-05-05 12:56 17.34092 78.32444 5367 ft 214 kts
2026-05-05 12:56 17.35579 78.32471 5571 ft 214 kts
2026-05-05 12:56 17.37069 78.32484 5770 ft 214 kts
2026-05-05 12:56 17.38558 78.32474 5985 ft 212 kts
2026-05-05 12:57 17.39888 78.33020 6202 ft 209 kts 44°
2026-05-05 12:57 17.40640 78.34301 6412 ft 209 kts 67°
2026-05-05 12:57 17.41082 78.35751 6622 ft 210 kts 77°
2026-05-05 12:57 17.41305 78.37262 6845 ft 210 kts 85°
2026-05-05 12:58 17.41366 78.38788 7077 ft 210 kts 89°
2026-05-05 12:58 17.41363 78.40316 7309 ft 210 kts 90°
2026-05-05 12:58 17.41356 78.41841 7550 ft 209 kts 90°
2026-05-05 12:58 17.41351 78.43363 7773 ft 208 kts 89°
2026-05-05 12:59 17.41364 78.44874 8009 ft 208 kts 89°
2026-05-05 12:59 17.41386 78.46384 8250 ft 207 kts 88°
2026-05-05 12:59 17.41413 78.47885 8493 ft 206 kts 88°
2026-05-05 13:00 17.41466 78.50881 8980 ft 205 kts 88°
2026-05-05 13:00 17.41496 78.52374 9227 ft 205 kts 88°
2026-05-05 13:01 17.41576 78.56832 9956 ft 203 kts 88°
2026-05-05 13:01 17.41606 78.58310 10186 ft 203 kts 88°
2026-05-05 13:01 17.41633 78.59784 10417 ft 202 kts 88°
2026-05-05 13:01 17.41658 78.61251 10655 ft 202 kts 88°
2026-05-05 13:02 17.41680 78.62725 10872 ft 203 kts 86°
2026-05-05 13:02 17.41717 78.64219 11045 ft 207 kts 86°
2026-05-05 13:02 17.41757 78.65740 11211 ft 211 kts 86°
2026-05-05 13:02 17.41795 78.67284 11378 ft 214 kts 86°
2026-05-05 13:03 17.41828 78.68827 11551 ft 216 kts 86°
2026-05-05 13:03 17.41845 78.70428 11716 ft 219 kts 86°
2026-05-05 13:03 17.41865 78.72027 11891 ft 221 kts 86°
2026-05-05 13:03 17.41892 78.73639 12067 ft 222 kts 86°
2026-05-05 13:04 17.41917 78.75264 12239 ft 224 kts 85°
2026-05-05 13:04 17.41944 78.76880 12409 ft 226 kts 85°
2026-05-05 13:04 17.41974 78.78527 12579 ft 227 kts 86°
2026-05-05 13:04 17.42000 78.80180 12758 ft 227 kts 86°
2026-05-05 13:05 17.42027 78.81837 12930 ft 228 kts 86°
2026-05-05 13:05 17.42056 78.83496 13105 ft 229 kts 86°
2026-05-05 13:05 17.42089 78.85161 13284 ft 229 kts 86°
2026-05-05 13:05 17.42115 78.86829 13462 ft 229 kts 86°
2026-05-05 13:06 17.42140 78.88497 13635 ft 229 kts 86°
2026-05-05 13:06 17.42170 78.90165 13794 ft 229 kts 86°
2026-05-05 13:06 17.42198 78.91832 13954 ft 229 kts 86°
2026-05-05 13:06 17.42224 78.93498 14114 ft 228 kts 86°
2026-05-05 13:07 17.42249 78.95160 14276 ft 228 kts 87°
2026-05-05 13:07 17.42278 78.96818 14435 ft 228 kts 86°
2026-05-05 13:07 17.42305 78.98488 14530 ft 231 kts 87°
2026-05-05 13:07 17.42331 79.00181 14621 ft 234 kts 88°
2026-05-05 13:08 17.42356 79.01895 14712 ft 237 kts 87°
2026-05-05 13:08 17.42384 79.03632 14778 ft 241 kts 87°
2026-05-05 13:08 17.42416 79.05404 14807 ft 246 kts 87°
2026-05-05 13:08 17.42441 79.07206 14825 ft 250 kts 88°
2026-05-05 13:09 17.42468 79.09044 14830 ft 254 kts 87°
2026-05-05 13:09 17.42497 79.10908 14836 ft 258 kts 87°
2026-05-05 13:09 17.42527 79.12796 14835 ft 261 kts 87°
2026-05-05 13:09 17.42555 79.14702 14831 ft 263 kts 88°
2026-05-05 13:10 17.42585 79.16624 14828 ft 265 kts 87°
2026-05-05 13:10 17.42615 79.18559 14829 ft 266 kts 87°
2026-05-05 13:10 17.42643 79.20503 14830 ft 268 kts 88°
2026-05-05 13:10 17.42673 79.22454 14829 ft 268 kts 87°
2026-05-05 13:11 17.42703 79.24410 14830 ft 269 kts 87°
2026-05-05 13:11 17.42731 79.26369 14830 ft 270 kts 87°
2026-05-05 13:11 17.42759 79.28334 14831 ft 270 kts 87°
2026-05-05 13:11 17.42789 79.30301 14831 ft 270 kts 88°
2026-05-05 13:12 17.42817 79.32272 14827 ft 271 kts 87°
2026-05-05 13:12 17.42844 79.34219 14828 ft 271 kts 87°
2026-05-05 13:12 17.42876 79.36218 14830 ft 271 kts 87°
2026-05-05 13:12 17.42902 79.38167 14829 ft 271 kts 87°
2026-05-05 13:13 17.42931 79.40170 14832 ft 272 kts 87°
2026-05-05 13:13 17.42959 79.42145 14833 ft 272 kts 88°
2026-05-05 13:13 17.42988 79.44125 14833 ft 272 kts 88°
2026-05-05 13:13 17.43015 79.46079 14832 ft 272 kts 88°
2026-05-05 13:14 17.43039 79.48060 14833 ft 272 kts 88°
2026-05-05 13:14 17.43064 79.50043 14832 ft 272 kts 88°
2026-05-05 13:14 17.43092 79.52025 14830 ft 272 kts 88°
2026-05-05 13:14 17.43118 79.54006 14830 ft 272 kts 88°
2026-05-05 13:15 17.43145 79.55986 14828 ft 272 kts 88°
2026-05-05 13:15 17.43172 79.57962 14823 ft 272 kts 88°
2026-05-05 13:15 17.43197 79.59940 14822 ft 272 kts 88°
2026-05-05 13:15 17.43224 79.61918 14823 ft 271 kts 86°
2026-05-05 13:16 17.43483 79.63864 14824 ft 269 kts 77°
2026-05-05 13:16 17.43885 79.65776 14824 ft 269 kts 76°
2026-05-05 13:16 17.44283 79.67689 14823 ft 269 kts 77°
2026-05-05 13:16 17.44630 79.69616 14824 ft 269 kts 78°
2026-05-05 13:17 17.44943 79.71553 14823 ft 270 kts 79°
2026-05-05 13:17 17.45259 79.73492 14818 ft 270 kts 79°
2026-05-05 13:17 17.45580 79.75426 14818 ft 270 kts 78°
2026-05-05 13:17 17.45899 79.77365 14819 ft 270 kts 78°
2026-05-05 13:18 17.46222 79.79307 14816 ft 270 kts 79°
2026-05-05 13:18 17.46541 79.81250 14822 ft 271 kts 78°
2026-05-05 13:18 17.46863 79.83193 14821 ft 271 kts 79°
2026-05-05 13:18 17.47180 79.85133 14821 ft 271 kts 79°
2026-05-05 13:19 17.47499 79.87077 14815 ft 271 kts 78°
2026-05-05 13:19 17.47824 79.89023 14815 ft 271 kts 78°
2026-05-05 13:19 17.48155 79.90967 14816 ft 271 kts 78°
2026-05-05 13:19 17.48481 79.92910 14815 ft 271 kts 79°
2026-05-05 13:20 17.48782 79.94862 14812 ft 271 kts 79°
2026-05-05 13:20 17.49080 79.96809 14824 ft 271 kts 79°
2026-05-05 13:20 17.49389 79.98758 14820 ft 271 kts 79°
2026-05-05 13:20 17.49704 80.00703 14821 ft 271 kts 79°
2026-05-05 13:21 17.50026 80.02648 14817 ft 271 kts 79°
2026-05-05 13:21 17.50360 80.04561 14816 ft 269 kts 74°
2026-05-05 13:21 17.51266 80.06251 14820 ft 261 kts 44°
2026-05-05 13:21 17.51605 80.06614 14817 ft 261 kts 41°
2026-05-05 13:22 17.52342 80.07301 14819 ft 260 kts 36°
2026-05-05 13:22 17.53843 80.08351 14819 ft 258 kts 26°
2026-05-05 13:22 17.55454 80.09165 14861 ft 255 kts 21°
2026-05-05 13:22 17.57073 80.09905 14933 ft 253 kts 20°
2026-05-05 13:23 17.58686 80.10646 14968 ft 253 kts 21°
2026-05-05 13:23 17.60292 80.11416 14982 ft 254 kts 22°
2026-05-05 13:23 17.61892 80.12217 14988 ft 255 kts 22°
2026-05-05 13:23 17.63497 80.13024 15000 ft 257 kts 22°
2026-05-05 13:24 17.65109 80.13830 15000 ft 258 kts 22°
2026-05-05 13:24 17.66730 80.14640 15001 ft 258 kts 22°
2026-05-05 13:24 17.68353 80.15454 15003 ft 259 kts 22°
2026-05-05 13:24 17.69977 80.16270 15001 ft 259 kts 22°
2026-05-05 13:25 17.71607 80.17083 14999 ft 260 kts 22°
2026-05-05 13:25 17.73238 80.17900 15000 ft 260 kts 22°
2026-05-05 13:25 17.74870 80.18718 15002 ft 260 kts 22°
2026-05-05 13:25 17.76499 80.19549 15003 ft 261 kts 22°
2026-05-05 13:26 17.78129 80.20389 14998 ft 261 kts 22°
2026-05-05 13:26 17.79761 80.21224 14998 ft 261 kts 22°
2026-05-05 13:26 17.81391 80.22049 14999 ft 261 kts 22°
2026-05-05 13:26 17.83027 80.22870 15001 ft 261 kts 21°
2026-05-05 13:27 17.84665 80.23686 15009 ft 261 kts 21°
2026-05-05 13:27 17.86310 80.24493 15005 ft 261 kts 21°
2026-05-05 13:27 17.87955 80.25304 14999 ft 261 kts 22°
2026-05-05 13:27 17.89596 80.26121 15002 ft 261 kts 21°
2026-05-05 13:28 17.91230 80.26945 14995 ft 261 kts 22°
2026-05-05 13:28 17.92868 80.27773 14995 ft 261 kts 22°
2026-05-05 13:28 17.94504 80.28595 14990 ft 260 kts 22°
2026-05-05 13:28 17.96135 80.29421 14999 ft 260 kts 22°
2026-05-05 13:29 17.97769 80.30239 14996 ft 260 kts 22°
2026-05-05 13:29 17.99405 80.31056 14997 ft 260 kts 22°
2026-05-05 13:29 18.01040 80.31879 14995 ft 261 kts 21°
2026-05-05 13:29 18.02675 80.32706 14994 ft 261 kts 22°
2026-05-05 13:30 18.04291 80.33516 15000 ft 261 kts 22°
2026-05-05 13:30 18.05928 80.34333 14994 ft 261 kts 22°
2026-05-05 13:30 18.07567 80.35160 14995 ft 262 kts 21°
2026-05-05 13:30 18.09209 80.35991 14992 ft 262 kts 22°
2026-05-05 13:31 18.10853 80.36816 14992 ft 262 kts 22°
2026-05-05 13:31 18.12499 80.37639 14979 ft 262 kts 22°
2026-05-05 13:31 18.14150 80.38475 14926 ft 264 kts 22°
2026-05-05 13:31 18.15809 80.39318 14879 ft 265 kts 22°
2026-05-05 13:32 18.17479 80.40155 14836 ft 266 kts 22°
2026-05-05 13:32 18.19152 80.40992 14791 ft 267 kts 22°
2026-05-05 13:32 18.20829 80.41839 14743 ft 268 kts 21°
2026-05-05 13:32 18.22506 80.42693 14698 ft 268 kts 21°
2026-05-05 13:33 18.24188 80.43539 14652 ft 268 kts 21°
2026-05-05 13:33 18.25871 80.44383 14605 ft 268 kts 21°
2026-05-05 13:33 18.27552 80.45232 14559 ft 268 kts 21°
2026-05-05 13:33 18.29234 80.46081 14513 ft 268 kts 21°
2026-05-05 13:34 18.30916 80.46929 14475 ft 268 kts 22°
2026-05-05 13:34 18.32600 80.47776 14415 ft 269 kts 22°
2026-05-05 13:34 18.34286 80.48630 14322 ft 270 kts 21°
2026-05-05 13:34 18.35985 80.49489 14229 ft 271 kts 21°
2026-05-05 13:35 18.37692 80.50350 14137 ft 272 kts 22°
2026-05-05 13:35 18.39404 80.51213 14044 ft 273 kts 21°
2026-05-05 13:35 18.41118 80.52082 13957 ft 274 kts 21°
2026-05-05 13:35 18.42835 80.52950 13863 ft 274 kts 21°
2026-05-05 13:36 18.44554 80.53815 13772 ft 274 kts 22°
2026-05-05 13:36 18.46275 80.54689 13688 ft 275 kts 21°
2026-05-05 13:36 18.48001 80.55568 13557 ft 277 kts 21°
2026-05-05 13:36 18.49745 80.56450 13400 ft 279 kts 21°
2026-05-05 13:37 18.51496 80.57328 13252 ft 279 kts 23°
2026-05-05 13:37 18.52958 80.58687 13100 ft 288 kts 50°
2026-05-05 13:37 18.53933 80.60558 12949 ft 295 kts 64°
2026-05-05 13:37 18.54619 80.62604 12806 ft 297 kts 70°
2026-05-05 13:38 18.55227 80.64682 12650 ft 295 kts 70°
2026-05-05 13:38 18.55840 80.66744 12477 ft 295 kts 69°
2026-05-05 13:38 18.56524 80.68792 12281 ft 297 kts 67°
2026-05-05 13:38 18.57224 80.70849 12083 ft 299 kts 67°
2026-05-05 13:39 18.57923 80.72922 11891 ft 301 kts 67°
2026-05-05 13:39 18.58628 80.74990 11690 ft 300 kts 68°
2026-05-05 13:39 18.59329 80.77055 11509 ft 299 kts 68°
2026-05-05 13:39 18.60019 80.79123 11318 ft 299 kts 68°
2026-05-05 13:40 18.60718 80.81193 11074 ft 300 kts 68°
2026-05-05 13:40 18.61181 80.82571 10909 ft 301 kts 67°
2026-05-05 13:40 18.61881 80.84662 10644 ft 303 kts 67°
2026-05-05 13:40 18.62593 80.86762 10389 ft 305 kts 67°
2026-05-05 13:41 18.63298 80.88852 10140 ft 300 kts 67°
2026-05-05 13:41 18.64208 80.91580 9813 ft 296 kts 68°
2026-05-05 13:41 18.64906 80.93605 9547 ft 292 kts 68°
2026-05-05 13:41 18.65375 80.94956 9352 ft 290 kts 68°
2026-05-05 13:42 18.66278 80.97590 8987 ft 287 kts 68°
2026-05-05 13:42 18.66730 80.98921 8808 ft 285 kts 68°
2026-05-05 13:42 18.67392 81.00889 8543 ft 284 kts 69°
2026-05-05 13:42 18.68047 81.02851 8273 ft 283 kts 69°
2026-05-05 13:43 18.68702 81.04808 8007 ft 283 kts 69°
2026-05-05 13:43 18.69358 81.06756 7755 ft 281 kts 69°
2026-05-05 13:43 18.70007 81.08693 7487 ft 279 kts 70°
2026-05-05 13:43 18.70652 81.10619 7233 ft 278 kts 70°
2026-05-05 13:44 18.71292 81.12539 6982 ft 277 kts 71°
2026-05-05 13:44 18.71930 81.14442 6757 ft 274 kts 70°
2026-05-05 13:44 18.72562 81.16331 6516 ft 272 kts 71°
2026-05-05 13:44 18.73188 81.18210 6295 ft 271 kts 71°
2026-05-05 13:45 18.73814 81.20079 6059 ft 270 kts 71°
2026-05-05 13:45 18.74436 81.21941 5830 ft 269 kts 72°
2026-05-05 13:45 18.75056 81.23798 5597 ft 268 kts 72°
2026-05-05 13:45 18.75671 81.25649 5352 ft 267 kts 72°
2026-05-05 13:46 18.76287 81.27490 5109 ft 266 kts 72°
2026-05-05 13:46 18.76897 81.29322 4889 ft 263 kts 72°
2026-05-05 13:46 18.77503 81.31132 4739 ft 259 kts 72°
2026-05-05 13:46 18.78096 81.32911 4609 ft 255 kts 73°
2026-05-05 13:47 18.78679 81.34663 4500 ft 251 kts 73°
2026-05-05 13:47 18.79246 81.36366 4414 ft 247 kts 73°
2026-05-05 13:47 18.79813 81.38065 4347 ft 244 kts 73°
2026-05-05 13:47 18.80374 81.39743 4256 ft 240 kts 73°
2026-05-05 13:48 18.80919 81.41393 4160 ft 236 kts 72°
2026-05-05 13:48 18.81443 81.43022 4013 ft 233 kts 74°
2026-05-05 13:48 18.81974 81.44628 3986 ft 232 kts 73°
2026-05-05 13:48 18.82507 81.46237 3965 ft 232 kts 73°
2026-05-05 13:49 18.83047 81.47848 3950 ft 233 kts 73°
2026-05-05 13:49 18.83583 81.49465 3937 ft 234 kts 74°
2026-05-05 13:49 18.84118 81.51086 3879 ft 233 kts 74°
2026-05-05 13:49 18.84654 81.52701 3874 ft 233 kts 74°
2026-05-05 13:50 18.85191 81.54321 3863 ft 234 kts 74°
2026-05-05 13:50 18.85729 81.55944 3833 ft 234 kts 74°
2026-05-05 13:50 18.86268 81.57569 3821 ft 235 kts 74°
2026-05-05 13:50 18.86807 81.59194 3794 ft 235 kts 74°
2026-05-05 13:51 18.87348 81.60829 3776 ft 236 kts 74°
2026-05-05 13:51 18.87890 81.62471 3742 ft 237 kts 74°
2026-05-05 13:51 18.88438 81.64110 3713 ft 236 kts 74°
2026-05-05 13:51 18.88980 81.65746 3696 ft 236 kts 74°
2026-05-05 13:52 18.89520 81.67380 3662 ft 235 kts 73°
2026-05-05 13:52 18.90055 81.69010 3652 ft 235 kts 73°
2026-05-05 13:52 18.90599 81.70637 3616 ft 235 kts 73°
2026-05-05 13:52 18.91139 81.72264 3603 ft 235 kts 73°
2026-05-05 13:53 18.91677 81.73890 3566 ft 234 kts 74°
2026-05-05 13:53 18.92214 81.75510 3525 ft 233 kts 73°
2026-05-05 13:53 18.92744 81.77126 3508 ft 232 kts 73°
2026-05-05 13:53 18.93273 81.78738 3507 ft 232 kts 73°
2026-05-05 13:54 18.93809 81.80343 3493 ft 232 kts 73°
2026-05-05 13:54 18.94346 81.81955 3486 ft 232 kts 74°
2026-05-05 13:54 18.94889 81.83554 3485 ft 231 kts 74°
2026-05-05 13:54 18.95417 81.85156 3491 ft 231 kts 74°
2026-05-05 13:55 18.95945 81.86735 3488 ft 231 kts 74°
2026-05-05 13:55 18.96476 81.88360 3487 ft 231 kts 74°
2026-05-05 13:55 18.96994 81.89969 3482 ft 232 kts 75°
2026-05-05 13:55 18.97511 81.91560 3483 ft 232 kts 75°
2026-05-05 13:56 18.98041 81.93171 3483 ft 232 kts 75°
2026-05-05 13:56 18.98566 81.94778 3490 ft 232 kts 75°
2026-05-05 13:56 18.99092 81.96387 3502 ft 232 kts 74°
2026-05-05 13:56 18.99623 81.97996 3498 ft 232 kts 74°
2026-05-05 13:57 19.00156 81.99610 3500 ft 233 kts 74°
2026-05-05 13:57 19.00688 82.01224 3502 ft 233 kts 74°
2026-05-05 13:57 19.01223 82.02846 3506 ft 234 kts 74°
2026-05-05 13:57 19.01755 82.04472 3497 ft 234 kts 74°
2026-05-05 13:58 19.02290 82.06093 3505 ft 234 kts 75°
2026-05-05 13:58 19.02824 82.07720 3500 ft 235 kts 75°
2026-05-05 13:58 19.03358 82.09354 3494 ft 235 kts 74°
2026-05-05 13:58 19.03894 82.10985 3495 ft 235 kts 74°
2026-05-05 13:59 19.04966 82.14245 3497 ft 235 kts 74°
2026-05-05 13:59 19.05499 82.15873 3495 ft 234 kts 74°
2026-05-05 14:00 19.06547 82.19074 3497 ft 233 kts 74°
2026-05-05 14:00 19.07071 82.20678 3511 ft 229 kts 74°
2026-05-05 14:00 19.07592 82.22257 3487 ft 226 kts 74°
2026-05-05 14:00 19.08194 82.23768 3488 ft 223 kts 58°
2026-05-05 14:01 19.09438 82.24731 3495 ft 227 kts 18°
2026-05-05 14:01 19.10980 82.24725 3495 ft 222 kts 340°
2026-05-05 14:01 19.12337 82.24056 3498 ft 214 kts 329°
2026-05-05 14:01 19.13425 82.23073 3494 ft 203 kts 295°
2026-05-05 14:02 19.13869 82.21712 3491 ft 194 kts 278°
2026-05-05 14:02 19.14090 82.20314 3497 ft 192 kts 271°
2026-05-05 14:02 19.14173 82.18916 3516 ft 188 kts 268°
2026-05-05 14:02 19.14215 82.17551 3503 ft 183 kts 266°
2026-05-05 14:03 19.13904 82.16326 3487 ft 168 kts 237°
2026-05-05 14:03 19.13335 82.15253 3512 ft 167 kts 236°
2026-05-05 14:03 19.12766 82.14215 3512 ft 167 kts 236°
2026-05-05 14:03 19.12202 82.13144 3500 ft 167 kts 237°
2026-05-05 14:04 19.11646 82.12058 3394 ft 169 kts 238°
2026-05-05 14:04 19.11087 82.10958 3184 ft 168 kts 238°
2026-05-05 14:04 19.10562 82.09899 2968 ft 159 kts 237°
2026-05-05 14:04 19.10066 82.08887 2755 ft 151 kts 238°
2026-05-05 14:05 19.09611 82.07962 2613 ft 134 kts 238°
2026-05-05 14:05 19.09188 82.07127 2444 ft 125 kts 238°
2026-05-05 14:05 19.08775 82.06326 2254 ft 123 kts 238°
2026-05-05 14:05 19.08368 82.05526 2131 ft 127 kts 240°
2026-05-05 14:06 19.07951 82.04675 1930 ft 128 kts 245°
2026-05-05 14:06 19.07550 82.03882 1840 ft 115 kts 241°
2026-05-05 14:06 19.07275 82.03336 1834 ft 42 kts 241°
2026-05-05 14:06 19.07165 82.03113 1839 ft 23 kts 242°
2026-05-05 14:07 19.07086 82.02987 1845 ft 14 kts 231°
2026-05-05 14:07 19.07100 82.02959 1845 ft 2 kts 28°
2026-05-05 14:07 19.07122 82.02997 1844 ft 8 kts 60°
2026-05-05 14:07 19.07150 82.03053 1841 ft 9 kts 65°
2026-05-05 14:08 19.07177 82.03112 1839 ft 9 kts 62°
2026-05-05 14:08 19.07204 82.03164 1839 ft 8 kts 60°
2026-05-05 14:08 19.07231 82.03222 1838 ft 10 kts 72°
2026-05-05 14:08 19.07264 82.03312 1835 ft 16 kts 63°
2026-05-05 14:09 19.07325 82.03429 1831 ft 18 kts 63°
2026-05-05 14:09 19.07375 82.03535 1830 ft 14 kts 63°
2026-05-05 14:09 19.07417 82.03618 1830 ft 11 kts 62°
2026-05-05 14:09 19.07452 82.03688 1829 ft 11 kts 62°
2026-05-05 14:10 19.07494 82.03771 1829 ft 17 kts 63°
2026-05-05 14:10 19.07551 82.03858 1831 ft 10 kts 14°
2026-05-05 14:10 19.07581 82.03849 1828 ft 3 kts 339°
2026-05-05 14:10 19.07599 82.03836 1827 ft 3 kts 304°
2026-05-05 14:11 19.07606 82.03821 1827 ft 4 kts 295°
2026-05-05 14:11 19.07610 82.03810 1827 ft 0 kts 285°